Buffalo, MN

10:34 PM CDT on August 25, 2016 (GMT -0500)
Buffalo

Weather History for KCFE - May, 2013

Change the Weather History Date:

Wednesday, May 22, 2013

  Actual Average (KSTC) Record (KSTC)
Temperature  
Mean Temperature 47 °F 58 °F  
Max Temperature 51 °F 71 °F 94 °F (1964)
Min Temperature 43 °F 46 °F 28 °F (1963)
Degree Days  
Heating Degree Days 18 8  
Month to date heating degree days 230  
Since 1 July heating degree days 8397  
Cooling Degree Days 0 1  
Month to date cooling degree days 14  
Year to date cooling degree days 16  
Moisture  
Dew Point 44 °F    
Average Humidity 88    
Maximum Humidity 93    
Minimum Humidity 74    
Precipitation  
Precipitation 0.07 in 0.10 in 3.17 in (1962)
Month to date precipitation 2.06  
Year to date precipitation 7.42  
Snow  
Snow 0.00 in 0.00 in 0.00 in ()
Month to date snowfall 0.0  
Since 1 July snowfall 45.7  
Snow Depth -    
Sea Level Pressure  
Sea Level Pressure 29.82 in    
Wind  
Wind Speed 10 mph (NNE)    
Max Wind Speed 15 mph    
Max Gust Speed 25 mph    
Visibility 9 miles    
Events Rain    
T = Trace of Precipitation, MM = Missing Value Source: NWS Daily Summary

Daily Weather History Graph

Daily Weather History Graph

Search for Another Location

Airport or City:

Trip Planner

Search our weather history database for the weather conditions in past years. The results will help you decide how hot, cold, wet, or windy it might be!

Date:

Astronomy

May. 22, 2013 Rise Set
Actual Time 5:38 AM CDT 8:46 PM CDT
Civil Twilight 5:03 AM CDT 9:21 PM CDT
Nautical Twilight 4:17 AM CDT 10:07 PM CDT
Astronomical Twilight 3:22 AM CDT 11:03 PM CDT
Moon 6:03 PM CDT (5/22) 3:50 AM CDT (5/22)
Length of Visible Light 16h 18m
Length of Day
15h 07m
Waxing Gibbous, 91% of the Moon is Illuminated
May 22
Waxing Gibbous
May 24
Full
May 31
Last Quarter
Jun 8
New
Jun 16
First Quarter

Hourly Weather History & Observations

Time (CDT) Temp. Windchill Dew Point Humidity Pressure Visibility Wind Dir Wind Speed Gust Speed Precip Events Conditions
12:14 AM 45.3 °F 39.3 °F 43.0 °F 92% 29.74 in 4.0 mi North 12.7 mph 17.3 mph N/A   Light Drizzle
12:34 AM 45.5 °F 41.8 °F 43.0 °F 91% 29.74 in 7.0 mi NNE 6.9 mph - N/A   Overcast
12:54 AM 45.5 °F 40.8 °F 43.2 °F 92% 29.74 in 7.0 mi NNE 9.2 mph - N/A   Overcast
1:14 AM 45.3 °F 40.1 °F 43.0 °F 92% 29.73 in 7.0 mi NNE 10.4 mph - N/A   Overcast
1:34 AM 44.8 °F 40.4 °F 42.4 °F 91% 29.73 in 3.0 mi North 8.1 mph - N/A   Overcast
1:54 AM 44.6 °F 39.2 °F 42.3 °F 91% 29.73 in 4.0 mi NNE 10.4 mph - N/A   Overcast
2:14 AM 44.6 °F 40.2 °F 42.6 °F 93% 29.73 in 4.0 mi NNE 8.1 mph - 0.01 in   Drizzle
2:34 AM 44.6 °F 39.7 °F 42.4 °F 92% 29.73 in 4.0 mi North 9.2 mph - 0.02 in   Drizzle
2:54 AM 44.6 °F 40.2 °F 42.4 °F 92% 29.73 in 5.0 mi NNE 8.1 mph - 0.02 in   Light Drizzle
3:14 AM 44.4 °F 39.5 °F 42.3 °F 92% 29.73 in 5.0 mi NNE 9.2 mph - 0.01 in   Drizzle
3:34 AM 43.7 °F 38.1 °F 41.7 °F 93% 29.73 in 10.0 mi NNE 10.4 mph - 0.01 in   Overcast
3:54 AM 43.7 °F 39.1 °F 41.4 °F 91% 29.73 in 10.0 mi NNE 8.1 mph - 0.01 in   Overcast
4:14 AM 43.7 °F 38.1 °F 41.4 °F 91% 29.74 in 7.0 mi NNE 10.4 mph - N/A   Light Drizzle
4:34 AM 43.3 °F 37.2 °F 41.0 °F 91% 29.74 in 10.0 mi NNE 11.5 mph - N/A   Overcast
4:54 AM 43.7 °F 37.7 °F 41.4 °F 91% 29.74 in 10.0 mi NNE 11.5 mph - N/A   Overcast
5:14 AM 43.7 °F 38.1 °F 41.5 °F 92% 29.74 in 10.0 mi NNE 10.4 mph 17.3 mph N/A   Overcast
5:34 AM 43.7 °F 38.6 °F 41.5 °F 92% 29.74 in 10.0 mi NNE 9.2 mph 16.1 mph N/A   Overcast
5:54 AM 43.7 °F 38.1 °F 41.4 °F 91% 29.74 in 10.0 mi North 10.4 mph - N/A   Overcast
6:14 AM 43.7 °F 39.1 °F 41.9 °F 93% 29.74 in 10.0 mi NNE 8.1 mph - N/A   Overcast
6:34 AM 43.9 °F 37.9 °F 41.9 °F 93% 29.74 in 10.0 mi NNE 11.5 mph 16.1 mph N/A   Overcast
6:54 AM 44.1 °F 40.1 °F 42.1 °F 93% 29.74 in 10.0 mi NNE 6.9 mph - N/A   Overcast
7:14 AM 43.9 °F 38.8 °F 41.9 °F 93% 29.74 in 10.0 mi NNE 9.2 mph - N/A   Overcast
7:34 AM 44.4 °F 39.5 °F 42.3 °F 92% 29.75 in 7.0 mi NNE 9.2 mph - N/A   Overcast
7:54 AM 44.4 °F 40.0 °F 42.4 °F 93% 29.76 in 5.0 mi NNE 8.1 mph - N/A   Overcast
8:14 AM 44.8 °F 40.4 °F 43.0 °F 93% 29.76 in 7.0 mi North 8.1 mph - N/A   Overcast
8:34 AM 44.8 °F 39.9 °F 43.0 °F 93% 29.76 in 5.0 mi North 9.2 mph - N/A   Overcast
8:54 AM 45.0 °F 39.7 °F 43.2 °F 93% 29.76 in 5.0 mi North 10.4 mph - N/A   Overcast
9:14 AM 45.5 °F 39.6 °F 43.5 °F 93% 29.77 in 10.0 mi North 12.7 mph - N/A   Overcast
9:34 AM 45.5 °F 39.6 °F 43.3 °F 92% 29.77 in 5.0 mi North 12.7 mph - N/A   Overcast
9:54 AM 45.5 °F 40.3 °F 43.3 °F 92% 29.78 in 7.0 mi North 10.4 mph 16.1 mph N/A   Overcast
10:14 AM 45.5 °F 40.8 °F 43.5 °F 93% 29.77 in 7.0 mi NNE 9.2 mph 17.3 mph N/A   Overcast
10:34 AM 46.4 °F 41.1 °F 44.1 °F 92% 29.78 in 10.0 mi NNE 11.5 mph 18.4 mph N/A   Overcast
10:54 AM 46.4 °F 40.7 °F 44.1 °F 92% 29.79 in 10.0 mi North 12.7 mph - N/A Rain Light Rain
11:14 AM 46.6 °F - 44.2 °F 92% 29.79 in 10.0 mi North 10.4 mph 16.1 mph N/A   Drizzle
11:34 AM 47.8 °F - 45.1 °F 90% 29.79 in 10.0 mi North 10.4 mph 17.3 mph 0.01 in Rain Light Rain
11:54 AM 48.0 °F - 45.0 °F 89% 29.79 in 10.0 mi North 9.2 mph 18.4 mph 0.01 in   Light Drizzle
12:14 PM 48.6 °F - 45.5 °F 89% 29.80 in 10.0 mi North 12.7 mph 18.4 mph N/A   Drizzle
12:34 PM 49.1 °F - 45.9 °F 89% 29.80 in 10.0 mi NNE 12.7 mph 20.7 mph N/A   Light Drizzle
12:54 PM 50.0 °F - 46.6 °F 88% 29.80 in 10.0 mi NNE 11.5 mph 17.3 mph N/A Rain Rain
1:14 PM 50.4 °F - 46.9 °F 88% 29.81 in 10.0 mi North 11.5 mph - N/A Rain Rain
1:34 PM 50.4 °F - 46.4 °F 86% 29.81 in 10.0 mi North 13.8 mph 18.4 mph 0.01 in   Light Drizzle
1:54 PM 50.4 °F - 46.4 °F 86% 29.81 in 10.0 mi NNE 12.7 mph 20.7 mph 0.01 in   Light Drizzle
2:14 PM 51.3 °F - 46.9 °F 85% 29.82 in 10.0 mi NNE 11.5 mph 18.4 mph N/A   Light Drizzle
2:34 PM 51.3 °F - 46.8 °F 85% 29.83 in 10.0 mi North 11.5 mph 17.3 mph N/A   Light Drizzle
2:54 PM 50.5 °F - 46.2 °F 85% 29.83 in 10.0 mi North 9.2 mph 19.6 mph N/A   Light Drizzle
3:14 PM 50.5 °F - 46.4 °F 86% 29.84 in 10.0 mi North 8.1 mph - N/A   Light Drizzle
3:34 PM 50.5 °F - 46.4 °F 86% 29.84 in 10.0 mi North 12.7 mph 18.4 mph N/A   Light Drizzle
3:54 PM 50.4 °F - 45.9 °F 85% 29.85 in 10.0 mi North 13.8 mph 21.9 mph N/A   Light Drizzle
4:14 PM 50.0 °F - 45.7 °F 85% 29.85 in 10.0 mi North 15.0 mph 20.7 mph N/A Rain Light Rain
4:34 PM 50.2 °F - 46.4 °F 87% 29.86 in 10.0 mi North 13.8 mph 18.4 mph N/A   Light Drizzle
4:55 PM 50.4 °F - 46.6 °F 87% 29.86 in 10.0 mi North 10.4 mph 17.3 mph N/A   Drizzle
5:14 PM 49.6 °F - 46.0 °F 87% 29.87 in 10.0 mi North 12.7 mph 18.4 mph N/A   Light Drizzle
5:34 PM 50.2 °F - 46.4 °F 87% 29.87 in 10.0 mi North 12.7 mph 18.4 mph N/A   Light Drizzle
5:55 PM 49.8 °F - 45.9 °F 86% 29.88 in 10.0 mi NNE 15.0 mph 25.3 mph N/A   Light Drizzle
6:14 PM 49.6 °F - 46.0 °F 87% 29.89 in 10.0 mi NNE 11.5 mph 24.2 mph N/A Rain Light Rain
6:34 PM 49.5 °F - 46.4 °F 89% 29.90 in 10.0 mi North 12.7 mph 20.7 mph N/A   Light Drizzle
6:55 PM 48.7 °F - 45.5 °F 89% 29.91 in 10.0 mi North 13.8 mph 17.3 mph 0.01 in   Drizzle
7:14 PM 48.6 °F - 45.5 °F 89% 29.91 in 10.0 mi North 11.5 mph 18.4 mph N/A Rain Light Rain
7:34 PM 48.2 °F - 45.1 °F 89% 29.93 in 10.0 mi North 13.8 mph 19.6 mph 0.01 in Rain Rain
7:55 PM 48.6 °F - 45.5 °F 89% 29.93 in 10.0 mi NNE 11.5 mph 19.6 mph 0.01 in   Light Drizzle
8:14 PM 49.1 °F - 45.5 °F 87% 29.93 in 10.0 mi NNE 13.8 mph 19.6 mph N/A   Light Drizzle
8:34 PM 49.6 °F - 45.1 °F 84% 29.94 in 10.0 mi NNE 12.7 mph 20.7 mph N/A   Overcast
8:55 PM 50.2 °F - 45.1 °F 83% 29.95 in 10.0 mi NNE 9.2 mph 17.3 mph N/A   Overcast
9:14 PM 50.2 °F - 44.6 °F 81% 29.96 in 10.0 mi NNE 12.7 mph - N/A   Overcast
9:34 PM 50.2 °F - 43.9 °F 79% 29.97 in 10.0 mi NNE 9.2 mph 16.1 mph N/A   Overcast
9:55 PM 51.4 °F - 43.5 °F 74% 29.98 in 10.0 mi NNE 11.5 mph 19.6 mph N/A   Overcast
10:14 PM 50.9 °F - 43.0 °F 74% 29.99 in 10.0 mi North 9.2 mph - N/A   Mostly Cloudy
10:34 PM 50.2 °F - 42.8 °F 76% 30.01 in 10.0 mi North 8.1 mph 16.1 mph N/A   Mostly Cloudy
10:55 PM 49.1 °F - 42.4 °F 78% 30.01 in 10.0 mi North 6.9 mph - N/A   Scattered Clouds
11:14 PM 48.2 °F - 42.3 °F 80% 30.01 in 10.0 mi North 5.8 mph - N/A   Scattered Clouds
11:34 PM 47.8 °F - 42.4 °F 82% 30.02 in 10.0 mi North 8.1 mph - N/A   Scattered Clouds
11:54 PM 47.3 °F - 41.7 °F 81% 30.03 in 10.0 mi North 5.8 mph - N/A   Clear